Location: *
(37.5724°S, 58.0067°E)
Time: 23:00:04
(UTC+00:00)

Cosmos 1733 - Visible Passes

Search period start: 20 January 2021 00:00
Search period end: 30 January 2021 00:00
Orbit: 503 x 522 km, 82.5° (Epoch: 20 January)

Date Brightness Start Highest point End Pass type
(mag) Time Alt. Az. Time Alt. Az. Time Alt. Az.
20 Jan 4.9 00:30:47 10° SW 00:33:24 17° W 00:35:59 10° NW visible
20 Jan 5.6 22:38:58 10° SSE 22:42:03 21° ESE 22:45:04 10° NE visible
21 Jan 4.6 00:14:33 10° SW 00:17:34 21° W 00:20:04 12° NW visible
21 Jan 5.9 22:23:24 10° SSE 22:26:05 17° ESE 22:28:35 11° ENE visible
21 Jan 4.3 23:58:24 10° SSW 00:01:44 27° W 00:03:28 19° NW visible
22 Jan 6.0 22:07:59 10° SE 22:10:06 14° ESE 22:12:03 10° ENE visible
22 Jan 4.0 23:42:19 10° SSW 23:45:53 34° W 23:46:58 28° NW visible
23 Jan 6.2 21:52:53 10° SE 21:54:07 11° ESE 21:55:20 10° E visible
23 Jan 3.6 23:26:17 10° SSW 23:30:01 43° W 23:30:30 40° WNW visible
24 Jan 3.3 23:10:17 10° SSW 23:14:06 55° W 23:14:06 55° W visible
25 Jan 3.4 22:54:20 10° SSW 22:57:46 62° SW 22:57:46 62° SW visible
26 Jan 3.9 22:38:25 10° S 22:41:28 52° S 22:41:28 52° S visible
27 Jan 4.5 22:22:32 10° S 22:25:12 40° SSE 22:25:12 40° SSE visible
28 Jan 5.0 22:06:41 10° S 22:08:59 31° SSE 22:08:59 31° SSE visible
29 Jan 5.4 21:50:53 10° S 21:52:47 25° SSE 21:52:47 25° SSE visible
